Simultaneous Nadir Overpasses (SNOs) Predictions

Prediction of SNOs between GOES-16 and AQUA Satellite Orbit:

Table of predicted SNOs for the next 14.0 days since TLE Epoch: 6/8/2018
Index Date Time (GOES-16) GOES-16 Lat,Lon AQUA Lat,Lon Distance(km) Time Diff (sec)
1 06/09/2018 06:29:59 -0.01, -75.21 -0.32, -73.87 153.19 80
2 06/09/2018 18:51:23 0.01, -75.22 -0.83, -79.06 436.53 80
3 06/11/2018 06:17:47 -0.01, -75.23 -0.94, -70.91 491.60 80
4 06/11/2018 18:39:12 0.02, -75.24 -0.15, -76.11 98.06 80
5 06/13/2018 18:29:40 0.02, -75.27 0.48, -73.15 240.57 80
6 06/14/2018 06:50:55 -0.02, -75.27 0.59, -78.31 345.13 80
7 06/16/2018 06:38:43 -0.03, -75.29 -0.04, -75.35 6.69 80
8 06/18/2018 06:23:51 -0.03, -75.33 -0.67, -72.40 333.51 80
9 06/18/2018 18:45:15 0.03, -75.34 -0.46, -77.58 255.86 80
10 06/20/2018 18:35:43 0.03, -75.38 0.18, -74.63 85.00 80
11 06/21/2018 06:56:58 -0.03, -75.39 0.91, -79.78 499.82 80
12 06/22/2018 18:23:31 0.03, -75.42 0.83, -71.67 426.58 80




NCC Satellite Simultaneous Nadir Overpasses (SNOs) Prediction Service
